Weather History for Grazzanise, Italy

Change the Weather History Date:

Monday, March 11, 2013

  Actual Average (LIRN) Record (LIRN)
Temperature  
Mean Temperature 56 °F -  
Max Temperature 62 °F 62 °F 66 °F (1999)
Min Temperature 50 °F 43 °F 33 °F (2009)
Degree Days  
Heating Degree Days 9    
Growing Degree Days 6 (Base 50)    
Moisture  
Dew Point 51 °F    
Average Humidity 84    
Maximum Humidity 94    
Minimum Humidity 63    
Precipitation  
Precipitation 0.00 in 0.09 in - ()
Sea Level Pressure  
Sea Level Pressure 29.60 in    
Wind  
Wind Speed 8 mph ()    
Max Wind Speed 13 mph    
Max Gust Speed -    
Visibility 7.3 miles    
Events      
Averages and records for this station are not official NWS values.
T = Trace of Precipitation, MM = Missing Value Source: Averaged Metar Reports

Daily Weather History Graph

Daily Weather History Graph

Search for Another Location

Airport:

Trip Planner

Search our weather history database for the weather conditions in past years. The results will help you decide how hot, cold, wet, or windy it might be!

Date:

Astronomy

Mar. 11, 2013 Rise Set
Actual Time 6:21 AM CET 6:05 PM CET
Civil Twilight 5:54 AM CET 6:33 PM CET
Nautical Twilight 5:22 AM CET 7:05 PM CET
Astronomical Twilight 4:50 AM CET 7:37 PM CET
Moon 5:46 AM CET (3/11) 6:00 PM CET (3/11)
Length of Visible Light 12h 38m
Length of Day
11h 43m
Waning Crescent, 0% of the Moon is Illuminated
Mar 11
Waning Crescent
Mar 11
New
Mar 19
First Quarter
Mar 27
Full
Apr 3
Last Quarter

Hourly Weather History & Observations

Time (CET) Temp. Dew Point Humidity Pressure Visibility Wind Dir Wind Speed Gust Speed Precip Events Conditions
12:55 AM 53.6 °F 50.0 °F 88% 29.59 in 6.2 mi WSW 5.8 mph - N/A   Scattered Clouds
1:00 AM 54 °F 49 °F 79% 29.60 in 9 mi WSW 5.8 mph - -  
1:55 AM 53.6 °F 50.0 °F 88% 29.59 in 6.2 mi SW 9.2 mph - N/A   Scattered Clouds
2:55 AM 53.6 °F 50.0 °F 88% 29.59 in 6.2 mi WSW 8.1 mph - N/A   Scattered Clouds
3:55 AM 51.8 °F 48.2 °F 88% 29.59 in 6.2 mi West 8.1 mph - N/A   Scattered Clouds
4:00 AM 52 °F 48 °F 80% 29.60 in 10 mi West 8.1 mph - -   Scattered Clouds
4:55 AM 53.6 °F 50.0 °F 88% 29.59 in 6.2 mi WSW 6.9 mph - N/A   Scattered Clouds
5:55 AM 51.8 °F 48.2 °F 88% 29.59 in 6.2 mi SW 6.9 mph - N/A   Scattered Clouds
6:55 AM 50.0 °F 46.4 °F 87% 29.59 in 6.2 mi SW 6.9 mph - N/A   Partly Cloudy
7:00 AM 50 °F 46 °F 82% 29.60 in 9 mi SW 6.9 mph - -  
7:55 AM 51.8 °F 48.2 °F 88% 29.59 in 6.2 mi SW 5.8 mph - N/A   Scattered Clouds
8:55 AM 57.2 °F 51.8 °F 82% 29.62 in 6.2 mi SW 9.2 mph - N/A   Partly Cloudy
9:55 AM 60.8 °F 53.6 °F 77% 29.62 in 6.2 mi WSW 12.7 mph - N/A   Scattered Clouds
10:00 AM 60 °F 54 °F 76% 29.64 in 9 mi WSW 12.7 mph - -   Partly Cloudy
10:55 AM 60.8 °F 55.4 °F 82% 29.62 in 6.2 mi WSW 9.2 mph - N/A   Scattered Clouds
11:55 AM 59.0 °F 50.0 °F 72% 29.62 in 6.2 mi WSW 10.4 mph - N/A   Mostly Cloudy
12:55 PM 60.8 °F 51.8 °F 72% 29.62 in 6.2 mi WSW 12.7 mph - N/A   Scattered Clouds
1:00 PM 62 °F 53 °F 63% 29.63 in 16 mi WSW 12.7 mph - -  
1:55 PM 62.6 °F 55.4 °F 77% 29.62 in 6.2 mi WSW 11.5 mph - N/A   Scattered Clouds
2:55 PM 60.8 °F 55.4 °F 82% 29.59 in 6.2 mi WSW 12.7 mph - N/A   Mostly Cloudy
3:55 PM 59.0 °F 55.4 °F 88% 29.59 in 6.2 mi WSW 12.7 mph - N/A   Partly Cloudy
4:00 PM 60 °F 56 °F 81% 29.61 in 12 mi WSW 12.7 mph - -   Scattered Clouds
4:55 PM 57.2 °F 55.4 °F 94% 29.59 in 6.2 mi SW 9.2 mph - N/A   Partly Cloudy
5:55 PM 55.4 °F 53.6 °F 94% 29.59 in 6.2 mi WSW 5.8 mph - N/A   Scattered Clouds
6:55 PM 53.6 °F 51.8 °F 94% 29.59 in 6.2 mi SSW 5.8 mph - N/A   Mostly Cloudy
7:00 PM 54 °F 52 °F 90% 29.61 in 9 mi SSW 5.8 mph - -  
8:55 PM 51.8 °F 50.0 °F 94% 29.59 in 6.2 mi SW 8.1 mph - N/A   Mostly Cloudy
9:55 PM 51.8 °F 48.2 °F 88% 29.59 in 6.2 mi WSW 9.2 mph - N/A   Mostly Cloudy
10:00 PM 51 °F 48 °F 86% 29.62 in 9 mi WSW 9.2 mph - -   Partly Cloudy
10:55 PM 50.0 °F 48.2 °F 94% 29.59 in 6.2 mi WSW 5.8 mph - N/A   Mostly Cloudy
11:55 PM 51.8 °F 48.2 °F 88% 29.59 in 6.2 mi WSW 8.1 mph - N/A   Mostly Cloudy